Retour au catalogue

GLOBALSTAR M040

ActifCommunicationsLEO
NORAD 25622·PAYLOAD·🇺🇸 United States

Lancé Feb 9, 1999 depuis Baikonur Cosmodrome

Loading…

Prochains Passages (prochaines 24 heures)

TLE

FraisSource: Space-Track

Époque: Sep 14, 2026, 07:48 UTC

1 25622U 99004B   26257.32550103 -.00000090  00000-0  74778-4 0  9997
2 25622  51.9903 115.3686 0000730  13.5148 158.1185 12.62038593272591

Suivez GLOBALSTAR M040 en temps réel avec AllMySat

Download on the App Store